Home > Time Zones > World Clock > Weather > China > Sian > Past weeks

Flag Weather past 2 weeks in Sian, Shaanxi, China

Now
45 °F

Light rain. Fog.


Feels Like: 45 °F
Forecast: 39 / 56 °F
Wind: 1 mph from North

Location: Xian/Xianyang

Current Time: Nov 24, 2014 at 4:41:48 PM

Latest Report: Nov 24, 2014 at 4:00 PM


Visibility: 1 mi

Pressure: 30.21 "Hg

Humidity: 93%

Dew point: 43 °F

Location of SianLocation

Historic Weather in Sian — Graph

°F

Sian temperature yesterday

Maximum temperature yesterday: 50 °F (at 2:00 PM)
Minimum temperature yesterday: 41 °F (at 12:00 AM)
Average temperature yesterday: 45 °F

Past Weeks' High & Low Weather Summary

 TemperatureHumidityPressure
High63 °F (Nov 19, 2:00 PM)100% (Nov 23, 8:00 PM)30.51 "Hg (Nov 23, 8:00 PM)
Low27 °F (Nov 14, 6:00 AM)27% (Nov 11, 2:00 PM)30.04 "Hg (Nov 19, 3:00 PM)
Average44 °F73%30.27 "Hg
* Reported Nov 9 3:00 PM — Nov 24 3:00 PM, Sian, Weather by CustomWeather, © 2014

Note: Actual official high and low records may vary slightly from our data, if they occured in-between our weather recording intervals... More about our weather records

Advertising

Sian weather history for previous 24 hours

 ConditionsComfort  
Time TempWeatherWind HumidityBarometerVisibility
3:00 PM
Nov 24
45 °FLight rain. Fog.No wind93%30.24 "Hg1 mi
2:00 PM45 °FLight rain. Fog.1 mph93%30.24 "Hg1 mi
1:00 PM45 °FLight rain. Fog.1 mph93%30.24 "Hg1 mi
12:00 PM45 °FLight rain. Fog.1 mph93%30.27 "Hg1 mi
11:00 AM45 °FLight rain. Fog.1 mph93%30.30 "Hg1 mi
10:00 AM45 °FLight rain. Fog.3 mph93%30.30 "Hg1 mi
9:00 AM43 °FLight rain. Fog.3 mph100%30.30 "Hg1 mi
8:00 AM43 °FLight rain. Fog.1 mph100%30.27 "Hg1 mi
7:00 AM45 °FLight rain. Fog.1 mph93%30.27 "Hg1 mi
6:00 AM45 °FLight rain. Fog.3 mph93%30.27 "Hg1 mi
5:00 AM45 °FLight rain. Fog.1 mph93%30.27 "Hg1 mi
4:00 AM45 °FLight rain. Fog.1 mph93%30.27 "Hg1 mi
3:00 AM45 °FLight rain. Fog.1 mph93%30.30 "Hg1 mi
2:00 AM45 °FLight rain. Fog.3 mph93%30.30 "Hg1 mi
1:00 AM45 °FLight rain. Fog.3 mph93%30.30 "Hg1 mi
12:00 AM45 °FLight rain. Fog.3 mph93%30.30 "Hg1 mi
11:00 PM
Nov 23
45 °FLight rain. Fog.3 mph93%30.30 "Hg1 mi
10:00 PM45 °FFog.3 mph93%30.30 "Hg1 mi
9:00 PM45 °FFog.1 mph93%30.30 "Hg1 mi
8:00 PM45 °FFog.1 mph100%30.27 "Hg1 mi
7:00 PM45 °FFog.1 mph93%30.27 "Hg1 mi
6:00 PM48 °FFog.3 mph82%30.24 "Hg1 mi
5:00 PM48 °FFog.1 mph82%30.24 "Hg1 mi
4:00 PM48 °FFog.3 mph82%30.21 "Hg1 mi
Weather by CustomWeather, © 2014

See weather overviewHow to use our weather pages